Montana Department of Transportation

Main Content

Accidents and Incidents Report

Hourly Weather Roundup

ASUS45 KTFX 190519
RWRMT 
MONTANA HOURLY WEATHER ROUNDUP
NATIONAL WEATHER SERVICE GREAT FALLS MT
1119 PM MDT THU SEP 18 2014

NOTE: "FAIR" INDICATES FEW OR NO CLOUDS BELOW 12000 FEET WITH NO
SIGNIFICANT WEATHER AND/OR OBSTRUCTIONS TO VISIBILITY.

* THESE STATIONS ARE NOT UNDER NWS QUALITY CONTROL. THEY DO NOT
   REPORT WEATHER SUCH AS PRECIPITATION OR FOG.

MTZ001.007-043-190600-
WEST OF THE DIVIDE
CITY           SKY/WX    TMP DP  RH WIND       PRES   REMARKS
KALISPELL      CLOUDY    63  45  52 CALM      29.78S 
MISSOULA       CLOUDY    64  43  47 NW3       29.87R 
BUTTE          PTCLDY    50  43  77 SE7       29.95R 
MULLAN PASS    LGT RAIN  48  45  89 SW10G23   29.96S 
* ESSEX        N/A       62  43  50 NW1        N/A   
* LINCOLN      N/A       63  38  40 S4G13      N/A   
* LOOKOUT PASS N/A       56  48  75 SE9G14     N/A   
* POLSON       N/A       64  42  45 S3         N/A   
* RONAN APT    CLOUDY    64  46  52 N/A        N/A   
* SEELEY LAKE  N/A       58  41  53 E2G8       N/A   
* THOMP F APT  CLOUDY    72  46  40 SW9        N/A   
--------------------------------

MTZ008-052.055-190600-
SOUTHWEST MONTANA
CITY           SKY/WX    TMP DP  RH WIND       PRES   REMARKS
BOZEMAN        MOCLDY    52  48  86 E7        29.88R 
DILLON         FAIR      57  45  64 S9        29.90R 
W YELLOWSTONE  LGT RAIN  50  48  93 CALM      30.06R 
* THREE FORKS  PTCLDY    57  46  67 N/A        N/A   
* BOULDER HILL N/A       54  45  72 S7G14      N/A   
* MONIDA PASS  N/A       50  50 100 NE6        N/A   
* RAYNOLDS PAS N/A       51  38  61 SE8        N/A   
* WHITEHALL    N/A       59  47  65 NE1G7      N/A   
* WISE RIVER   N/A       56  40  55 W4         N/A   
--------------------------------

MTZ009.010-012-014-046-048-049-054-190600-
EAST SLOPES AND CENTRAL MONTANA
CITY           SKY/WX    TMP DP  RH WIND       PRES   REMARKS
CUT BANK       MOCLDY    63  43  48 W13       29.74S 
GREAT FALLS    PTCLDY    57  45  64 W7        29.76R 
HELENA         PTCLDY    63  48  58 W7        29.83R 
MALMSTROM AFB  PTCLDY    59  45  60 SW9       29.77R 
* CONRAD       PTCLDY    54  48  80 SW7        N/A   
* EAST GLACIER N/A       61  40  46 W10G17     N/A   
* MONARCH      N/A       55  44  67 S6         N/A   
* PENDROY      N/A       55  40  57 W4         N/A   
* SAINT MARY   N/A       63  41  45 S9G22      N/A   
* SWEET GRASS  N/A       61  41  48 W9         N/A   
* WHITE SULPH  N/A       58  47  67 NW3G14     N/A   
--------------------------------

MTZ011-013-016-021-035-040-045-047-050-051-190600-
NORTH CENTRAL MONTANA
CITY           SKY/WX    TMP DP  RH WIND       PRES   REMARKS
HAVRE          LGT RAIN  63  52  68 S5        29.66R 
LEWISTOWN      MOCLDY    63  50  63 SW13      29.78R 
* CHINOOK      PTCLDY    63  54  73 W7        29.67R 
* CHESTER      N/A       65  39  39 W11G17     N/A   
* DENTON       N/A       61  50  67 SW11       N/A   
* JUDITH GAP   N/A       64  52  65 W12        N/A   
* LOMA         N/A       66  45  47 S8         N/A   
--------------------------------

MTZ017.020-022.027-061-062-190600-
NORTHEAST MONTANA
CITY           SKY/WX    TMP DP  RH WIND       PRES   REMARKS
GLASGOW        CLOUDY    66  52  61 S7        29.62S 
GLENDIVE       CLOUDY    70  54  57 SW12      29.70R 
JORDAN         CLOUDY    64  55  73 NW3       29.67F 
SIDNEY         CLOUDY    63  54  73 S7        29.65S 
WOLF POINT     CLOUDY    63  54  73 S3        29.63R 
* BEAVER HILL  N/A       68  53  59 S11G16     N/A   
* CIRCLE       N/A       65  55  70 SW5        N/A   
* LINDSAY DVD  N/A       67  56  68 SW12       N/A   
* NAVAJO       N/A       64  52  65 W13        N/A   
* SACO         N/A       68  50  53 SE6        N/A   
--------------------------------

MTZ028.042-056.058-190600-
SOUTHCENTRAL AND SOUTHEAST MONTANA
CITY           SKY/WX    TMP DP  RH WIND       PRES   REMARKS
BAKER          CLOUDY    64  55  73 SW15      29.78S 
BILLINGS       CLOUDY    64  54  70 SW10      29.80R 
LIVINGSTON     CLOUDY61  48  62 CALM      29.86R 
MILES CITY     CLOUDY    68  54  61 SW6       29.71F 
* LAUREL APT   CLOUDY    63  54  73 SW10G16    N/A   
* ROUNDUP APT  CLOUDY    64  52  65 S7         N/A   
* ALZADA       N/A       64  56  75 NW9        N/A   
* LAME DEER    N/A       59  53  81 S8         N/A   
* REED POINT   N/A       58  55  90 W6         N/A   
* ROSCOE HILL  N/A       59  45  60 SW17G32    N/A   
--------------------------------

REGIONAL REPORTS...DAKOTAS
CITY           SKY/WX    TMP DP  RH WIND       PRES   REMARKS
WILLISTON      CLOUDY    63  54  73 SW5       29.61R 
DICKINSON      CLOUDY    66  59  78 SW12      29.69R 
BEACH          N/A       70  52  53 SW17G22   29.72S 
CROSBY         CLEAR     63  55  75 S14       29.57S 
TIOGA          CLEAR     63  54  73 SW9       29.63S 
WATFORD CITY   CLEAR     66  54  65 SW9       29.61R 
BISMARCK       CLOUDY    72  61  68 S10       29.67R 
GRAND FORKS    CLOUDY    70  57  64 S18G30    29.66F 
FARGO          CLOUDY    66  55  68 S20G29    29.75F 
BUFFALO SD     CLOUDY    70  54  57 NW24G32   29.71F 
RAPID CITY     MOCLDY    70  55  59 SE6       29.71F 
--------------------------------

REGIONAL REPORTS...WYOMING/IDAHO/WASHINGTON
CITY           SKY/WX    TMP DP  RH WIND       PRES   REMARKS
GILLETTE       CLOUDY    64  52  65 N7        29.86F 
SHERIDAN       CLOUDY    63  54  73 W8        29.87F 
CODY           CLOUDY   N/A N/A N/A N/A        N/A   
YELLOWSTONE LA CLOUDY    48  46  93 CALM      30.13S 
SALMON         CLEAR     54  45  72 CALM      29.88R 
MULLAN PASS    LGT RAIN  48  45  89 SW10G23   29.96S 
SAND POINT     MOCLDY    59  52  78 CALM      29.80R 
SPOKANE        MOCLDY    66  46  49 SW15      29.82R 
--------------------------------

REGIONAL REPORTS...ALBERTA
CITY           SKY/WX    TMP DP  RH WIND       PRES   REMARKS
CALGARY        MOCLDY    57  50  78 CALM      29.65F 
LETHBRIDGE     FAIR      61  48  62 W15       29.67S 
MEDICINE HAT   PTCLDY    66  46  49 W16G23    29.59R 
EDMONTON       MOCLDY    48  45  89 S5        29.60R 
WATERTON GATE  N/A       57  46  67 SW21G31    N/A   
CARDSTON       N/A       61  46  58 W12G18     N/A   
MILK RIVER     N/A       57  45  64 W8         N/A   
--------------------------------

REGIONAL REPORTS...SASKATCHEWAN
CITY           SKY/WX    TMP DP  RH WIND       PRES   REMARKS
SWIFT CURRENT  CLOUDY    61  50  67 SW12      29.56S 
REGINA         MOCLDY    61  54  78 W8        29.54R 
VAL MARIE      N/A       55  50  83 SW3        N/A   
ASSINIBOIA     N/A       63  50  63 SW12       N/A   
CORONACH       N/A       63  52  68 N1         N/A   

--------------------------------